Regional Weather Roundup
Issued by NWS

Home | Current Version | Previous Version | Graphics & Text | Print | Product List | Glossary Off
Versions: 1 2 3 4 5 6 7 8 9 10 11 12 13 14 15 16 17 18 19 20 21 22 23 24 25 26 27 28 29 30 31 32 33 34 35 36 37 38 39 40 41 42 43 44 45 46 47 48 49 50

000
ASUS43 KTOP 191308
RWRKS

WEATHER ROUNDUP FOR KANSAS
NATIONAL WEATHER SERVICE GOODLAND KS
800 AM CDT FRI SEP 19 2014

NOTE:  "FAIR" INDICATES FEW OR NO CLOUDS BELOW 12,000 FEET WITH NO
SIGNIFICANT WEATHER AND/OR OBSTRUCTIONS TO VISIBILITY.

KSZ001>006-013>018-027>032-041>047-191400-
NORTHWEST KANSAS

CITY           SKY/WX    TMP DP  RH WIND       PRES   REMARKS
GOODLAND       CLEAR     64  59  83 SW14      29.95R
HAYS           CLEAR     63  55  77 S9        29.96R
HILL CITY      CLEAR     61  59  93 S6        29.93R
RUSSELL        CLEAR     64  61  90 S12       29.94R
$$

KSZ061>065-074>080-084>089-191400-
SOUTHWEST KANSAS

CITY           SKY/WX    TMP DP  RH WIND       PRES   REMARKS
DODGE CITY     CLEAR     59  56  89 S7        29.99R
ELKHART          N/A     62  58  87 SW8         N/A
GARDEN CITY    CLEAR     59  57  93 S8        29.98R
GREAT BEND     CLEAR     63  59  88 S7        29.98R
LIBERAL        CLEAR     57  54  88 S7        30.02R
PRATT          CLEAR     61  61 100 SW6       30.00S FOG
$$

KSZ066>073-081>083-090>101-191400-
SOUTHEAST KANSAS

CITY           SKY/WX    TMP DP  RH WIND       PRES   REMARKS
CHANUTE        CLOUDY    64  63  96 SE7       30.01S FOG
COFFEYVILLE    CLOUDY    64  62  93 CALM      30.01R FOG
HUTCHINSON     CLEAR     64  61  90 SE5       29.98R
MEDICINE LODGE   N/A     63  62  97 CALM      29.99R
NEWTON         CLEAR     63  57  82 S8        30.01S
PARSONS        MOCLDY    64  63  96 CALM      30.03R
WICHITA INTL   CLEAR     66  63  90 S8        29.98R
WICHITA JABRA  CLEAR     65  63  93 S6        29.99R
WICHITA MCCONL CLEAR     65  65 100 SE7       29.99R
WINFIELD       PTCLDY    65  64  97 SE7       30.01R
$$

KSZ007>012-019>026-033>040-048>060-102>105-191400-
NORTHEAST KANSAS

CITY           SKY/WX    TMP DP  RH WIND       PRES   REMARKS
CONCORDIA      CLEAR     64  63  96 S12       29.96R
EMPORIA        FOG       63  63 100 S8        30.00R VSB 1/4
LAWRENCE       CLOUDY    62  61  96 SE6       30.02R FOG
MANHATTAN      PTCLDY    63  62  97 CALM      29.98R
MARYSVILLE     PTCLDY    63  63 100 S9        29.97R
OLATHE IND     CLOUDY    62  62 100 SE8       30.03R FOG
OLATHE EXE     FOG       61  61 100 SE7       30.03R VSB 1/4
SALINA         CLEAR     65  62  90 S7        29.97R
TOPEKA BILLARD CLOUDY    64  64 100 SE7       30.01R FOG
TOPEKA FORBES  CLOUDY    63  62  97 SE6       30.01R FOG
$$



USA.gov is the U.S. government's official web portal to all federal, state and local government web resources and services.